Theta_e
305 305 307 308 307 299 301 301 300 303 303 302 297 296 302 304 305 304 303 303 303 303 301 296 292 294 294 298 300 300 299 302 303 304 303 303 303 308 310 312 311 312 312 312
308 307 308 307 306 299 301 303 303 303 304 296 297 301 302 303 303 303 303 303 303 302 303 302 299 298 300 299 299 300 300 300 303 302 302 302 306 305 308 309 310 310 312 313
306 307 308 307 306 299 301 301 296 303 303 300 299 301 302 303 303 303 303 303 303 303 303 300 301 301 301 300 300 302 301 299 302 304 303 303 305 305 305 308 310 310 312 311
303 306 307 307 306 299 300 301 299 300 295 299 299 300 301 302 303 302 303 303 303 303 303 303 302 301 301 300 302 301 300 301 299 301 302 302 303 304 304 305 306 310 309 311
298 304 306 307 307 301 299 302 301 300 299 299 300 299 301 302 302 302 303 303 302 302 302 302 302 302 301 300 300 295 297 301 301 303 303 303 305 304 304 305 306 309 310 310
300 298 302 306 307 307 301 298 299 301 297 297 298 298 301 302 302 302 302 302 301 301 300 302 303 302 303 301 300 299 298 298 301 301 302 303 303 304 305 306 308 309 310 310
306 299 298 301 305 306 306 303 298 300 298 297 298 299 299 300 301 302 302 302 301 302 302 302 301 300 300 299 298 300 299 299 302 304 300 299 302 304 305 306 307 307 307 307
308 304 298 298 301 305 305 305 303 298 296 298 298 298 298 299 299 299 301 302 302 302 302 301 301 300 301 301 298 297 298 300 302 303 302 300 304 304 306 307 306 306 306 306
308 307 300 298 298 301 303 304 303 302 298 297 299 299 298 296 296 296 299 300 301 301 300 301 303 300 302 303 301 297 297 299 301 303 303 303 301 304 306 305 305 304 306 306
308 308 305 298 298 298 300 303 303 302 300 301 298 298 296 298 297 295 297 300 301 302 299 302 301 302 300 302 302 302 302 303 305 303 304 302 300 305 305 304 302 306 307 306
308 308 307 303 298 298 298 301 302 302 302 303 301 299 298 298 298 296 298 297 298 298 300 301 301 300 299 299 298 299 300 299 301 302 303 302 302 304 305 301 305 306 307 306
308 307 308 306 301 298 298 299 301 302 301 301 302 301 301 298 298 298 298 297 299 300 298 298 298 301 295 296 301 296 299 299 299 300 301 300 303 305 306 305 306 306 306 306
307 308 308 307 304 298 298 299 299 300 301 300 299 300 300 301 301 299 298 297 299 301 301 299 297 299 296 299 297 298 296 297 298 301 300 298 302 303 304 304 306 306 306 307
307 308 307 307 305 301 298 299 299 300 300 298 300 300 299 299 299 300 298 298 298 300 301 300 297 299 299 297 296 296 298 296 296 296 297 300 301 302 302 304 302 303 304 306
307 308 307 307 306 303 298 297 298 300 300 299 300 299 299 298 297 297 296 296 296 297 298 296 297 298 296 295 294 294 296 296 298 298 299 299 300 302 302 302 302 302 303 305
309 307 307 307 307 304 297 299 302 299 300 300 298 298 296 296 296 296 296 295 295 296 297 296 297 297 298 296 295 297 299 299 301 300 301 300 301 301 301 302 302 303 303 304
309 307 307 307 306 304 300 302 301 301 300 300 297 296 295 295 295 295 295 295 295 295 295 295 296 297 298 295 296 298 300 300 300 300 300 299 300 300 300 300 301 302 302 303
309 307 307 307 306 301 299 300 300 299 300 298 292 295 293 295 295 294 294 295 295 295 295 295 294 296 296 297 297 298 299 299 299 299 298 298 298 299 299 299 299 300 300 301
309 307 306 305 301 300 302 302 301 300 299 297 295 297 297 294 294 294 294 295 294 294 293 293 294 294 296 297 297 298 299 299 299 298 298 299 298 299 300 300 300 299 299 300
307 306 303 301 301 301 302 301 299 298 298 297 296 296 293 294 293 294 294 294 295 293 294 294 294 295 296 298 298 298 299 299 298 298 300 300 300 300 300 300 299 299 299 299
306 304 302 299 299 300 300 299 297 297 297 297 297 298 293 294 294 295 294 292 293 291 291 295 294 295 293 299 299 299 299 298 298 299 298 298 298 300 301 301 300 299 299 299
305 303 299 298 299 299 298 298 298 299 300 298 298 296 298 295 295 294 292 293 292 293 291 293 294 294 297 298 298 298 298 298 299 299 300 300 300 301 301 301 301 300 299 299
303 301 299 300 298 298 299 297 297 299 297 297 294 294 297 295 295 294 294 293 292 291 293 295 295 295 297 298 298 298 299 299 300 301 301 301 300 301 302 302 301 300 299 298
302 298 297 299 299 298 297 294 295 298 298 295 296 294 295 294 294 294 294 294 290 292 292 294 294 298 299 298 298 298 299 300 300 300 300 299 299 300 301 301 302 301 300 299
299 298 301 298 299 297 297 297 297 296 296 295 295 293 294 293 295 294 292 292 293 293 295 296 298 299 299 299 299 299 300 299 299 299 299 299 299 299 300 301 301 301 300 300
298 297 299 298 296 292 295 297 296 296 295 297 296 292 294 296 295 294 293 291 292 296 295 298 299 298 298 298 299 299 298 297 298 299 299 299 299 298 299 300 301 301 301 301
296 296 300 299 298 297 296 297 296 296 296 298 296 296 297 291 291 291 292 292 296 297 302 301 299 298 299 298 299 299 297 297 297 298 299 298 298 298 298 298 297 299 301 301
Wind_Speed
11 15 18 18 16 14 5 2 2 8 4 3 3 2 1 1 1 0 1 1 2 2 1 1 2 3 6 6 4 3 4 1 5 7 2 3 4 3 2 2 3 3 2 4
12 14 15 18 16 15 5 3 3 7 2 3 2 1 2 2 1 1 0 1 1 0 2 3 4 4 3 5 3 4 4 1 4 7 3 2 2 3 4 4 3 3 2 5
12 12 13 16 16 15 7 2 2 5 7 6 4 2 1 1 0 1 1 2 1 1 1 2 3 3 1 4 5 4 4 2 5 5 6 1 4 6 8 2 3 5 4 10
14 12 12 14 13 13 7 5 3 2 2 4 3 2 1 1 1 1 1 1 2 2 1 2 2 2 4 1 1 1 1 4 4 9 16 11 14 13 11 6 6 4 4 8
12 12 12 12 12 11 9 4 2 2 1 1 1 3 3 2 2 3 2 2 1 4 5 6 4 2 3 5 1 1 0 4 4 5 5 2 10 13 11 8 5 8 9 10
12 11 10 10 9 10 5 5 3 1 2 1 1 2 2 3 1 3 5 4 1 3 7 10 13 14 11 8 6 2 1 1 5 5 5 10 5 4 4 3 5 4 5 5
13 10 10 10 8 7 5 4 3 1 1 1 3 2 3 4 5 3 4 5 4 3 9 16 13 12 16 14 9 9 2 0 2 6 7 2 5 3 3 5 8 7 8 6
13 12 9 8 8 7 5 3 2 1 2 5 5 7 6 6 7 4 8 10 9 9 9 4 4 2 1 2 4 7 9 2 3 2 4 8 1 3 4 4 5 4 5 4
10 12 11 9 7 7 5 4 2 2 1 5 4 3 4 2 2 4 4 4 4 1 2 2 1 2 2 1 3 6 6 3 1 1 2 4 2 2 3 3 4 7 6 4
11 10 11 9 8 7 7 5 3 3 4 6 7 5 4 4 2 2 4 2 1 1 1 1 2 3 2 2 3 4 4 3 8 8 6 8 7 3 5 0 4 8 10 8
13 11 10 11 10 7 7 7 6 5 6 11 11 11 10 6 4 2 1 2 1 2 0 1 2 2 3 2 3 5 6 6 5 4 4 8 7 6 5 4 3 4 10 11
15 15 11 11 11 9 8 7 8 9 10 9 12 14 14 16 13 3 3 1 2 4 2 1 0 3 1 3 3 1 3 6 4 8 6 6 12 10 8 9 8 6 11 12
18 18 15 12 12 10 10 9 8 9 9 13 12 8 10 18 22 17 5 4 5 4 4 3 1 4 3 3 5 3 5 6 4 2 3 9 21 24 28 31 30 19 12 13
21 19 18 15 13 12 12 12 8 7 4 5 4 5 6 7 9 17 22 17 6 4 4 4 2 2 7 3 4 4 6 7 4 7 14 19 9 6 10 14 18 20 21 18
24 22 20 17 14 13 13 15 15 12 7 4 9 14 16 13 10 11 14 18 18 10 4 3 3 4 2 3 2 4 11 7 6 7 8 8 15 9 12 15 18 16 16 20
24 24 21 20 18 15 10 7 7 16 12 4 3 5 6 6 9 14 13 13 11 8 6 5 6 5 4 2 4 11 23 20 23 8 7 19 29 32 29 27 24 16 13 16
24 24 22 22 22 19 12 4 2 8 15 4 6 3 4 8 8 8 9 11 7 8 5 6 4 4 8 3 4 9 18 21 21 20 19 19 22 17 17 18 20 19 18 14
23 22 21 24 25 18 21 19 9 8 9 6 2 3 3 11 6 5 8 7 9 8 5 4 5 4 6 6 17 14 16 13 19 18 14 20 24 26 26 25 25 23 24 20
20 19 20 23 16 12 15 19 20 18 14 5 7 3 3 12 5 5 7 6 3 4 4 5 5 3 8 11 14 19 15 13 13 22 20 20 19 17 16 16 18 24 28 26
24 25 14 8 9 18 9 10 8 13 13 11 7 8 4 13 8 4 6 4 3 3 5 5 4 6 29 36 30 26 23 22 21 18 15 13 19 20 22 21 20 23 24 24
35 18 11 10 17 14 8 7 8 10 5 11 11 28 7 10 4 3 8 3 3 2 3 4 3 5 7 15 13 9 10 13 13 12 13 14 17 18 20 23 22 21 21 25
33 19 21 20 9 8 6 5 6 6 7 10 9 9 11 10 7 5 6 3 3 6 6 3 4 5 18 11 13 12 10 9 6 5 7 9 11 14 18 21 23 22 21 21
29 12 10 10 9 6 8 11 5 5 8 13 14 5 11 7 5 4 3 5 6 5 3 5 6 9 9 19 14 11 9 6 3 1 4 8 11 14 17 19 20 22 23 20
13 12 8 7 6 8 6 5 6 12 11 27 24 10 7 6 5 4 5 4 3 4 4 7 4 20 21 18 12 10 7 5 1 4 7 11 14 16 18 20 21 22 22 18
10 10 9 11 13 8 8 15 12 7 25 32 15 7 4 3 4 5 3 5 6 7 6 4 10 15 18 23 17 12 8 2 5 8 9 10 13 15 16 19 21 21 20 20
12 11 6 6 9 7 14 22 16 23 32 23 5 4 4 5 4 5 10 6 8 4 4 19 13 15 20 18 15 14 6 6 9 11 12 11 11 14 15 18 21 21 19 19
10 8 29 22 9 19 22 25 29 35 31 4 5 8 9 3 4 5 6 6 4 9 13 15 15 24 17 14 16 16 8 8 11 14 15 13 13 13 16 19 21 22 22 22
Wind_Direction
344 349 352 1 4 12 20 39 44 15 41 47 51 92 85 87 123 135 30 138 244 253 157 232 289 240 215 197 172 180 209 231 272 242 203 128 167 242 257 304 311 251 254 289
349 352 357 0 5 10 29 80 57 16 40 103 5 68 82 79 61 346 15 257 195 155 278 321 214 221 276 200 181 192 180 244 316 347 28 119 227 217 232 249 249 245 311 294
350 355 1 3 4 9 23 50 44 41 55 76 116 89 64 6 214 213 233 237 135 6 302 226 297 282 278 202 232 247 170 238 209 215 230 128 276 272 292 204 276 307 265 293
1 0 5 8 10 13 21 38 58 59 316 18 90 124 194 169 302 214 233 217 181 151 256 294 247 262 317 181 248 128 119 268 211 252 262 268 268 265 266 206 225 242 267 305
354 356 1 10 14 14 32 49 42 49 72 342 356 343 184 192 269 196 222 210 279 185 209 202 231 219 171 245 96 131 88 278 332 290 293 180 276 266 250 231 250 253 269 284
344 350 348 355 9 13 35 36 52 65 344 357 49 243 212 213 214 234 222 210 221 248 244 259 260 248 243 209 166 203 216 312 353 273 322 305 287 237 192 198 210 194 231 240
335 343 344 345 347 8 14 17 7 20 270 209 216 218 228 248 232 252 234 230 182 245 295 295 273 256 247 246 226 204 175 347 227 287 327 349 233 206 177 222 260 228 257 269
324 330 334 339 340 341 357 353 357 304 266 234 273 243 231 272 266 248 259 262 258 291 317 348 342 352 225 214 178 199 184 140 280 274 287 287 229 208 184 173 279 240 244 261
306 318 322 324 331 325 334 337 334 284 273 246 226 210 232 236 262 324 252 267 274 279 83 48 346 269 310 308 147 52 142 144 186 313 289 262 277 203 180 97 284 209 208 250
290 297 308 308 308 306 305 301 290 283 258 261 225 215 205 182 193 242 295 320 298 219 92 214 201 264 215 277 240 173 141 174 219 241 263 283 247 168 149 275 248 196 209 223
278 280 291 297 296 295 285 285 283 269 265 270 249 246 232 216 210 170 225 7 289 49 161 182 242 215 248 312 241 188 179 158 197 187 225 275 168 114 179 239 194 214 218 222
262 272 268 277 280 280 283 261 263 267 272 273 274 262 251 247 250 253 224 208 210 220 116 201 269 263 223 191 271 359 264 197 191 194 220 232 204 245 257 273 279 277 250 245
252 263 259 258 271 272 274 276 274 276 289 292 274 275 260 244 240 236 223 237 219 211 211 180 206 250 139 207 238 240 237 194 231 338 281 244 270 271 267 271 269 268 273 259
248 249 260 259 265 271 266 263 267 262 271 280 272 257 256 242 228 222 226 236 226 219 212 228 210 222 187 235 265 221 219 160 199 262 287 290 294 320 325 343 283 266 260 257
244 242 249 257 256 259 263 267 264 243 232 267 286 284 269 243 222 214 215 225 230 230 224 195 227 228 201 231 297 243 189 196 177 224 237 235 281 302 320 318 329 327 280 253
247 242 242 245 249 250 253 280 250 224 218 270 292 278 250 226 207 212 206 208 220 212 208 223 236 230 214 256 248 250 216 218 222 232 262 285 286 287 286 295 302 311 293 267
249 239 238 240 243 239 219 249 251 199 190 240 287 261 210 192 185 189 190 197 201 209 230 231 235 226 202 240 243 245 231 236 246 257 265 275 284 293 297 291 292 288 291 281
245 237 232 239 235 230 234 234 224 196 197 240 250 262 242 191 175 165 176 178 194 216 244 243 213 201 219 252 234 233 212 244 273 276 278 276 282 281 280 283 286 283 278 273
235 222 230 217 209 216 228 246 228 212 206 236 203 212 236 176 163 155 168 181 189 205 231 239 178 213 226 235 221 236 245 227 279 298 291 291 279 289 294 289 278 272 272 267
210 199 185 201 198 212 215 201 207 208 212 229 228 202 207 168 163 166 140 176 224 228 228 177 222 252 256 252 250 249 248 263 288 284 296 311 311 312 312 307 295 279 279 270
196 184 180 166 156 160 192 218 200 197 231 215 211 202 147 179 142 166 203 174 188 257 242 202 246 261 248 251 232 213 211 225 240 257 282 298 302 310 315 319 315 302 282 271
197 184 151 145 171 184 200 204 207 206 224 193 171 178 168 156 161 131 181 174 156 249 160 216 256 249 235 193 171 177 192 207 228 274 312 323 330 329 324 323 323 316 297 277
177 173 152 168 182 209 208 195 203 201 197 176 159 136 149 142 161 116 167 176 219 142 211 235 236 257 233 206 196 193 197 213 202 317 360 354 351 347 341 334 327 319 307 288
179 166 176 202 195 238 196 174 178 203 170 154 148 127 142 148 154 150 191 194 135 219 229 238 244 237 215 194 206 200 196 186 268 320 328 331 331 335 333 332 334 323 312 291
190 185 198 209 219 198 210 198 156 153 156 146 135 96 126 164 167 185 130 181 230 217 227 224 252 233 206 206 206 198 186 230 312 301 300 302 310 316 321 321 321 317 310 294
205 211 202 194 178 192 173 182 164 164 153 149 144 143 183 205 196 172 213 182 217 224 216 246 244 210 186 197 203 199 225 290 295 289 286 292 307 318 318 316 315 312 303 291
201 208 215 199 193 191 189 187 178 164 156 170 165 189 205 99 184 225 197 211 202 198 236 260 229 196 185 204 206 211 254 293 310 297 281 276 288 301 313 325 325 320 309 299